Location: Newark
(9.1167°S, 159.8667°E)
Time: 19:07:54
(UTC+00:00)

Envisat - Pass Details

Date: 01 October 2019
Orbit: 764 x 766 km, 98.1° (Epoch: 16 October)

Event Time Altitude Azimuth Distance (km) Brightness Sun altitude
Rises 08:58:03 0° 195° (SSW) 3,240 6.5 -26.0°
Reaches altitude 10° 09:01:04 10° 214° (SW) 2,309 6.0 -26.7°
Maximum altitude 09:04:23 18° 255° (WSW) 1,827 5.7 -27.5°
Drops below altitude 10° 09:07:42 10° 296° (WNW) 2,297 6.1 -28.3°
Sets 09:10:43 0° 315° (NW) 3,218 6.7 -29.1°
